Home > Weather > Merida > Past weeks

Flag for Mexico Weather for the Past 2 Weeks in Merida, Yucatán, Mexico

Now
81 °F

Partly sunny.


Feels Like: 81 °F
Forecast: 62 / 81 °F
Wind: 12 mph from North

Location: Aerop. Internacional Merida - Yuc

Current Time: Feb 13, 2016 at 12:15:51 PM

Latest Report: Feb 13, 2016 at 10:43 AM


Visibility: 7 mi

Pressure: 30.25 "Hg

Humidity: 45%

Dew point: 57 °F

Location of MeridaLocation

Historic Weather in Merida — Graph

°F

Merida Temperature Yesterday

Maximum temperature yesterday: 82 °F (at 12:41 PM)
Minimum temperature yesterday: 63 °F (at 2:46 AM)
Average temperature yesterday: 71 °F

High & Low Weather Summary for the Past Weeks

 TemperatureHumidityPressure
High95 °F (Feb 2, 12:48 PM)100% (Feb 1, 5:32 AM)30.34 "Hg (Feb 1, 5:32 AM)
Low50 °F (Feb 8, 5:46 AM)32% (Jan 30, 3:44 PM)29.75 "Hg (Feb 2, 1:46 PM)
Average71 °F70%30.10 "Hg
* Reported Jan 29 10:51 AM — Feb 13 10:43 AM, Merida, Weather by CustomWeather, © 2016

Note: Actual official high and low records may vary slightly from our data, if they occured in-between our weather recording intervals... More about our weather records

Advertising

Merida Weather History for the Previous 24 Hours

 ConditionsComfort  
Time TempWeatherWind HumidityBarometerVisibility
10:43 AM
Sat, Feb 13
81 °FPartly sunny.12 mph45%30.25 "Hg7 mi
9:47 AM79 °FPartly sunny.13 mph51%30.26 "Hg7 mi
8:46 AM73 °FScattered clouds.12 mph61%30.21 "Hg6 mi
7:46 AM66 °FScattered clouds.6 mph78%30.23 "Hg6 mi
6:49 AM55 °FScattered clouds.No wind94%30.22 "Hg7 mi
5:52 AM55 °FClear.No wind94%30.18 "Hg7 mi
4:45 AM57 °FClear.No wind88%30.19 "Hg7 mi
4:25 AM59 °FClear.No wind88%30.18 "Hg7 mi
2:53 AM61 °FClear.No wind83%30.20 "Hg7 mi
1:52 AM64 °FClear.No wind73%30.18 "Hg7 mi
12:53 AM64 °FClear.No wind78%30.20 "Hg7 mi
11:43 PM
Fri, Feb 12
64 °FClear.5 mph78%30.21 "Hg7 mi
10:46 PM68 °FClear.9 mph73%30.21 "Hg7 mi
9:42 PM68 °FClear.9 mph69%30.21 "Hg7 mi
6:46 PM72 °FClear.12 mph61%30.18 "Hg7 mi
5:43 PM73 °FSunny.12 mph50%30.17 "Hg7 mi
4:47 PM77 °FSunny.16 mph44%30.16 "Hg7 mi
2:41 PM82 °FScattered clouds.12 mph37%30.14 "Hg7 mi
1:48 PM82 °FScattered clouds.9 mph40%30.15 "Hg7 mi
12:41 PM82 °FScattered clouds.8 mph40%30.18 "Hg7 mi
Weather by CustomWeather, © 2016

See weather overviewHow to use our weather pages